STARLINK-4775 (53934 NORAD) Tracking and Keplerian Element Data

This shows tracking and keplerian element data for the satellite.

Feedback or suggestion? Click here.




ElementValue
Catalog53934
NameSTARLINK-4775
Epoch Orbit945
Epoch Day325.25001157
Epoch Year2022
RAAN329.4724
Inclination53.215
Eccentricity0.0004223
Argument of Perigee359.8726
Mean Anonmoly115.1074
Mean Motion15.73214854
Decay Rate-0.00054979
L11 53934U 22119BA 22325.25001157 -.00054979 00000+0 -38936-3 0 9991
L22 53934 53.2150 329.4724 0004223 359.8726 115.1074 15.73214854 9451



Live tracking and technical data element details for STARLINK-4775 (NORAD 53934). STARLINK-4775 can be tracked NOW for your location showing map with azimuth and elevation plus other details from your city location.







IsCatalogInMostPopularTable: catalog: 53934, numindb: 1
Update: records affected: 1



GetName: 53934 STARLINK-4775

Hit Count: updated at: Mon, 28 Nov 2022 21:38:15 GMT